Flag for Australia Weather past 2 weeks in Rockhampton, Queensland, Australia

Now
77 °F

Sunny.


Feels Like: 78 °F
Forecast: 56 / 75 °F
Wind: No wind

Location: Rockhampton Airport

Current Time: Jul 1, 2015 at 4:48:17 PM

Latest Report: Jul 1, 2015 at 4:00 PM


Visibility: 10 mi

Pressure: 30.09 "Hg

Humidity: 44%

Dew point: 54 °F

Location of RockhamptonLocation

Historic Weather in Rockhampton — Graph

°F

Rockhampton temperature yesterday

Maximum temperature yesterday: 75 °F (at 12:00 PM)
Minimum temperature yesterday: 61 °F (at 5:30 AM)
Average temperature yesterday: 68 °F

Past Weeks' High & Low Weather Summary

 TemperatureHumidityPressure
High79 °F (Jun 18, 3:00 PM)100% (Jun 17, 8:30 AM)30.33 "Hg (Jun 17, 8:30 AM)
Low48 °F (Jun 21, 5:00 AM)29% (Jun 20, 2:00 PM)29.95 "Hg (Jun 17, 4:30 AM)
Average66 °F72%30.15 "Hg
* Reported Jun 16 3:00 PM — Jul 1 3:30 PM, Rockhampton, Weather by CustomWeather, © 2015

Note: Actual official high and low records may vary slightly from our data, if they occured in-between our weather recording intervals... More about our weather records

Advertising

Rockhampton weather history for previous 24 hours

 ConditionsComfort  
Time TempWeatherWind HumidityBarometerVisibility
3:30 PM
Wed, Jul 1
79 °FScattered clouds.3 mph42%30.09 "HgN/A
3:00 PM79 °FScattered clouds.3 mph42%30.09 "HgN/A
2:30 PM77 °FScattered clouds.6 mph44%30.12 "HgN/A
2:00 PM79 °FScattered clouds.7 mph42%30.12 "HgN/A
1:30 PM77 °FSunny.7 mph44%30.12 "HgN/A
1:00 PM77 °FPassing clouds.7 mph44%30.12 "HgN/A
12:30 PM77 °FPassing clouds.9 mph44%30.15 "HgN/A
12:00 PM75 °FPassing clouds.5 mph54%30.18 "HgN/A
11:30 AM75 °FPassing clouds.7 mph54%30.21 "HgN/A
11:00 AM73 °FPassing clouds.8 mph57%30.21 "HgN/A
10:30 AM73 °FPassing clouds.6 mph57%30.21 "HgN/A
10:00 AM72 °FPassing clouds.7 mph57%30.24 "HgN/A
9:30 AM70 °FPassing clouds.6 mph60%30.24 "HgN/A
9:00 AM68 °FPassing clouds.6 mph69%30.24 "HgN/A
8:30 AM64 °FSunny.6 mph78%30.24 "Hg10 mi
8:00 AM63 °FSunny.6 mph83%30.21 "Hg10 mi
7:30 AM61 °FSunny.5 mph83%30.21 "Hg10 mi
7:00 AM61 °FSunny.6 mph83%30.21 "Hg10 mi
6:30 AM59 °FSunny.5 mph94%30.21 "Hg10 mi
6:00 AM57 °FSunny.6 mph94%30.21 "Hg10 mi
5:30 AM59 °FClear.2 mph94%30.18 "HgN/A
5:00 AM61 °FClear.1 mph88%30.18 "HgN/A
4:30 AM61 °FClear.2 mph88%30.18 "HgN/A
4:00 AM61 °FClear.3 mph88%30.18 "HgN/A
3:00 AM63 °FPassing clouds.3 mph88%30.18 "HgN/A
2:30 AM63 °FClear.5 mph83%30.18 "HgN/A
2:00 AM64 °FClear.6 mph83%30.18 "HgN/A
1:00 AM66 °FOvercast.6 mph73%30.21 "HgN/A
12:30 AM66 °FPassing clouds.7 mph78%30.21 "HgN/A
12:00 AM66 °FPassing clouds.8 mph78%30.21 "HgN/A
11:00 PM
Tue, Jun 30
66 °FOvercast.7 mph78%30.21 "HgN/A
10:30 PM66 °FClear.6 mph78%30.24 "Hg10 mi
10:00 PM66 °FClear.5 mph78%30.24 "Hg10 mi
9:00 PM68 °FClear.7 mph73%30.24 "Hg10 mi
8:30 PM68 °FClear.8 mph73%30.21 "Hg10 mi
8:00 PM68 °FClear.9 mph73%30.21 "Hg10 mi
7:30 PM68 °FClear.9 mph73%30.21 "Hg10 mi
7:00 PM70 °FClear.9 mph69%30.21 "HgN/A
6:30 PM70 °FClear.9 mph69%30.21 "Hg10 mi
6:00 PM70 °FClear.7 mph64%30.18 "Hg10 mi
5:30 PM72 °FPassing clouds.8 mph61%30.18 "HgN/A
5:00 PM72 °FPassing clouds.6 mph61%30.18 "HgN/A
4:30 PM72 °FPartly cloudy.9 mph61%30.18 "HgN/A
4:00 PM72 °FPartly sunny.8 mph61%30.18 "HgN/A
Weather by CustomWeather, © 2015

See weather overviewHow to use our weather pages